QPF
0.00 0.00 0.01 0.06 0.08 0.05 0.04 0.04 0.04 0.03 0.03 0.02 0.02 0.02 0.02 0.03 0.07 0.11 0.11 0.10 0.13 0.13 0.13 0.16 0.17 0.15 0.14 0.12 0.10 0.13 0.15 0.16 0.14 0.13 0.13 0.12 0.12 0.15 0.16 0.14 0.15 0.14 0.12 0.13 0.12 0.08 0.06 0.05 0.05
0.00 0.00 0.03 0.08 0.07 0.05 0.05 0.05 0.02 0.02 0.02 0.01 0.01 0.01 0.02 0.03 0.04 0.07 0.09 0.09 0.09 0.10 0.14 0.14 0.15 0.15 0.13 0.11 0.10 0.11 0.12 0.10 0.10 0.11 0.11 0.12 0.12 0.14 0.16 0.16 0.18 0.17 0.16 0.31 0.18 0.11 0.08 0.06 0.05
0.00 0.02 0.06 0.06 0.03 0.04 0.04 0.03 0.01 0.01 0.01 0.01 0.01 0.01 0.02 0.04 0.03 0.06 0.09 0.09 0.06 0.07 0.09 0.12 0.16 0.20 0.14 0.11 0.11 0.09 0.08 0.07 0.09 0.10 0.09 0.10 0.11 0.15 0.18 0.18 0.17 0.16 0.24 0.40 0.26 0.16 0.13 0.09 0.06
0.05 0.08 0.05 0.03 0.03 0.02 0.02 0.02 0.01 0.01 0.00 0.00 0.01 0.01 0.04 0.06 0.06 0.08 0.09 0.08 0.06 0.09 0.10 0.12 0.13 0.19 0.20 0.14 0.12 0.09 0.07 0.07 0.07 0.08 0.08 0.09 0.10 0.12 0.15 0.17 0.16 0.16 0.24 0.30 0.31 0.22 0.13 0.08 0.06
0.07 0.07 0.04 0.02 0.02 0.02 0.02 0.02 0.01 0.01 0.01 0.00 0.01 0.02 0.08 0.09 0.09 0.08 0.07 0.07 0.07 0.09 0.09 0.09 0.10 0.14 0.19 0.18 0.12 0.08 0.07 0.07 0.07 0.08 0.08 0.08 0.10 0.12 0.13 0.16 0.14 0.15 0.22 0.26 0.22 0.17 0.10 0.07 0.06
0.07 0.04 0.02 0.02 0.02 0.03 0.03 0.02 0.02 0.03 0.02 0.01 0.01 0.04 0.10 0.08 0.05 0.05 0.05 0.05 0.05 0.06 0.07 0.08 0.08 0.09 0.11 0.12 0.10 0.07 0.06 0.06 0.07 0.07 0.06 0.09 0.11 0.12 0.12 0.14 0.14 0.12 0.16 0.19 0.16 0.14 0.08 0.05 0.05
0.04 0.03 0.01 0.01 0.01 0.02 0.02 0.01 0.01 0.02 0.02 0.01 0.01 0.04 0.08 0.07 0.03 0.02 0.02 0.03 0.03 0.04 0.05 0.07 0.09 0.08 0.08 0.08 0.08 0.07 0.05 0.06 0.07 0.09 0.09 0.11 0.10 0.11 0.11 0.13 0.12 0.11 0.12 0.13 0.13 0.12 0.09 0.06 0.05
0.01 0.02 0.01 0.01 0.01 0.01 0.01 0.01 0.02 0.02 0.02 0.02 0.01 0.02 0.06 0.04 0.01 0.01 0.01 0.01 0.02 0.04 0.05 0.06 0.06 0.06 0.08 0.07 0.07 0.07 0.05 0.06 0.09 0.11 0.11 0.11 0.08 0.08 0.10 0.09 0.09 0.09 0.11 0.10 0.10 0.10 0.07 0.05 0.05
0.01 0.04 0.01 0.01 0.00 0.00 0.01 0.01 0.01 0.02 0.02 0.02 0.02 0.02 0.02 0.01 0.01 0.01 0.01 0.02 0.03 0.03 0.04 0.05 0.05 0.05 0.05 0.04 0.04 0.05 0.06 0.08 0.10 0.12 0.13 0.16 0.16 0.12 0.11 0.08 0.08 0.07 0.07 0.06 0.07 0.05 0.04 0.04 0.03
0.00 0.02 0.01 0.00 0.00 0.00 0.00 0.00 0.00 0.01 0.01 0.02 0.02 0.01 0.01 0.01 0.01 0.01 0.01 0.03 0.03 0.03 0.04 0.04 0.04 0.03 0.02 0.02 0.04 0.07 0.08 0.11 0.14 0.15 0.17 0.20 0.21 0.18 0.12 0.09 0.07 0.07 0.06 0.07 0.07 0.05 0.04 0.05 0.06
0.00 0.00 0.00 0.00 0.00 0.00 0.00 0.00 0.00 0.00 0.01 0.02 0.02 0.01 0.01 0.00 0.01 0.01 0.01 0.03 0.05 0.04 0.05 0.04 0.04 0.03 0.03 0.04 0.05 0.07 0.11 0.13 0.16 0.14 0.13 0.16 0.16 0.16 0.12 0.12 0.10 0.09 0.09 0.11 0.10 0.08 0.08 0.08 0.10
0.00 0.00 0.00 0.00 0.00 0.00 0.00 0.00 0.00 0.00 0.00 0.00 0.00 0.00 0.00 0.00 0.01 0.01 0.01 0.03 0.04 0.04 0.05 0.06 0.05 0.05 0.06 0.05 0.06 0.09 0.09 0.11 0.14 0.14 0.10 0.09 0.13 0.15 0.14 0.14 0.12 0.12 0.12 0.14 0.14 0.12 0.10 0.08 0.08
0.00 0.00 0.00 0.00 0.00 0.00 0.00 0.00 0.00 0.00 0.00 0.00 0.00 0.00 0.00 0.01 0.01 0.00 0.01 0.01 0.04 0.03 0.04 0.05 0.04 0.05 0.06 0.08 0.11 0.09 0.08 0.09 0.11 0.12 0.10 0.09 0.12 0.15 0.14 0.12 0.11 0.12 0.11 0.12 0.14 0.10 0.09 0.07 0.06
0.00 0.00 0.00 0.00 0.00 0.00 0.00 0.00 0.00 0.00 0.00 0.00 0.00 0.00 0.00 0.00 0.01 0.00 0.00 0.01 0.02 0.03 0.03 0.04 0.04 0.05 0.06 0.08 0.12 0.10 0.06 0.07 0.08 0.09 0.07 0.11 0.12 0.13 0.15 0.13 0.12 0.10 0.10 0.12 0.12 0.08 0.08 0.06 0.06
0.00 0.00 0.00 0.00 0.00 0.00 0.01 0.02 0.01 0.00 0.00 0.00 0.00 0.00 0.00 0.00 0.00 0.01 0.01 0.01 0.01 0.02 0.03 0.02 0.02 0.03 0.05 0.08 0.10 0.09 0.06 0.05 0.06 0.08 0.07 0.08 0.08 0.10 0.12 0.11 0.11 0.10 0.08 0.08 0.09 0.08 0.08 0.07 0.06
0.01 0.02 0.01 0.00 0.00 0.00 0.01 0.02 0.01 0.00 0.00 0.00 0.00 0.00 0.00 0.00 0.00 0.01 0.01 0.01 0.01 0.02 0.03 0.02 0.02 0.03 0.05 0.08 0.09 0.07 0.07 0.06 0.06 0.05 0.05 0.05 0.06 0.06 0.10 0.09 0.09 0.08 0.06 0.05 0.05 0.06 0.09 0.11 0.10
0.01 0.03 0.02 0.00 0.00 0.00 0.00 0.00 0.00 0.00 0.00 0.00 0.00 0.00 0.00 0.00 0.00 0.00 0.00 0.00 0.01 0.02 0.02 0.03 0.02 0.03 0.04 0.06 0.07 0.05 0.04 0.04 0.03 0.04 0.04 0.04 0.03 0.05 0.08 0.08 0.09 0.08 0.08 0.05 0.06 0.08 0.09 0.10 0.09
0.02 0.01 0.01 0.01 0.01 0.00 0.00 0.00 0.00 0.00 0.00 0.00 0.00 0.00 0.01 0.01 0.01 0.01 0.00 0.00 0.01 0.02 0.02 0.03 0.04 0.04 0.05 0.06 0.07 0.07 0.05 0.03 0.03 0.03 0.03 0.03 0.04 0.04 0.08 0.09 0.10 0.09 0.10 0.09 0.11 0.12 0.12 0.11 0.11
0.01 0.01 0.01 0.01 0.01 0.01 0.01 0.00 0.00 0.00 0.00 0.00 0.01 0.01 0.01 0.00 0.00 0.01 0.00 0.01 0.01 0.01 0.02 0.03 0.04 0.05 0.06 0.07 0.10 0.10 0.08 0.05 0.03 0.02 0.02 0.02 0.02 0.03 0.06 0.07 0.11 0.10 0.11 0.11 0.10 0.12 0.14 0.13 0.09
0.00 0.00 0.01 0.00 0.00 0.01 0.01 0.01 0.01 0.00 0.00 0.01 0.01 0.00 0.00 0.00 0.01 0.01 0.00 0.01 0.01 0.01 0.01 0.01 0.03 0.05 0.04 0.05 0.07 0.08 0.06 0.04 0.03 0.03 0.05 0.01 0.01 0.02 0.05 0.07 0.09 0.09 0.10 0.11 0.11 0.12 0.12 0.11 0.13
0.00 0.01 0.02 0.00 0.00 0.01 0.02 0.02 0.02 0.01 0.00 0.00 0.00 0.00 0.00 0.00 0.00 0.00 0.00 0.00 0.00 0.01 0.01 0.01 0.02 0.03 0.04 0.04 0.04 0.05 0.06 0.07 0.07 0.07 0.07 0.03 0.01 0.01 0.03 0.05 0.07 0.08 0.09 0.10 0.09 0.10 0.12 0.13 0.15
0.00 0.00 0.00 0.00 0.01 0.02 0.02 0.05 0.03 0.01 0.00 0.00 0.00 0.00 0.00 0.00 0.00 0.00 0.00 0.00 0.00 0.00 0.00 0.01 0.02 0.03 0.03 0.04 0.05 0.05 0.08 0.08 0.07 0.08 0.06 0.04 0.02 0.02 0.02 0.03 0.05 0.07 0.07 0.08 0.07 0.07 0.09 0.11 0.12
0.00 0.00 0.00 0.00 0.00 0.01 0.01 0.01 0.02 0.01 0.01 0.01 0.00 0.00 0.00 0.00 0.00 0.01 0.00 0.00 0.00 0.00 0.00 0.01 0.02 0.03 0.04 0.05 0.05 0.06 0.06 0.06 0.06 0.05 0.06 0.05 0.05 0.03 0.02 0.03 0.04 0.05 0.06 0.05 0.04 0.05 0.06 0.08 0.09
0.00 0.00 0.00 0.00 0.00 0.01 0.01 0.01 0.01 0.01 0.01 0.00 0.00 0.00 0.00 0.00 0.00 0.00 0.00 0.00 0.00 0.00 0.00 0.00 0.02 0.03 0.04 0.03 0.03 0.05 0.06 0.06 0.06 0.06 0.06 0.05 0.04 0.04 0.03 0.03 0.03 0.04 0.04 0.04 0.04 0.05 0.05 0.06 0.07
0.00 0.00 0.02 0.03 0.02 0.01 0.00 0.00 0.00 0.00 0.00 0.00 0.00 0.00 0.00 0.00 0.00 0.00 0.00 0.00 0.00 0.00 0.00 0.01 0.02 0.02 0.02 0.02 0.02 0.03 0.04 0.04 0.04 0.05 0.05 0.04 0.04 0.05 0.04 0.04 0.04 0.04 0.05 0.05 0.06 0.06 0.06 0.07 0.07
0.00 0.00 0.04 0.04 0.02 0.00 0.00 0.00 0.00 0.00 0.00 0.00 0.00 0.00 0.00 0.00 0.00 0.00 0.00 0.00 0.00 0.00 0.00 0.01 0.02 0.02 0.01 0.01 0.02 0.02 0.02 0.03 0.03 0.03 0.03 0.03 0.03 0.03 0.04 0.03 0.03 0.03 0.04 0.04 0.06 0.06 0.05 0.06 0.06
0.00 0.00 0.01 0.01 0.00 0.00 0.00 0.00 0.00 0.00 0.00 0.00 0.00 0.00 0.00 0.00 0.00 0.00 0.00 0.00 0.00 0.00 0.00 0.01 0.02 0.01 0.01 0.01 0.01 0.01 0.01 0.02 0.02 0.02 0.01 0.02 0.02 0.02 0.04 0.03 0.02 0.02 0.02 0.03 0.04 0.04 0.04 0.04 0.05
0.00 0.00 0.00 0.00 0.00 0.01 0.01 0.01 0.01 0.00 0.00 0.00 0.00 0.00 0.00 0.00 0.00 0.00 0.00 0.00 0.00 0.00 0.00 0.01 0.01 0.01 0.00 0.00 0.00 0.01 0.01 0.01 0.01 0.01 0.01 0.02 0.02 0.03 0.03 0.03 0.01 0.01 0.02 0.02 0.03 0.03 0.03 0.03 0.04
0.00 0.00 0.00 0.00 0.00 0.01 0.03 0.03 0.01 0.00 0.00 0.00 0.00 0.00 0.00 0.00 0.00 0.00 0.00 0.00 0.00 0.00 0.00 0.00 0.00 0.01 0.00 0.00 0.01 0.01 0.01 0.00 0.00 0.01 0.01 0.01 0.02 0.02 0.02 0.02 0.01 0.02 0.02 0.03 0.03 0.02 0.02 0.02 0.03
0.00 0.00 0.00 0.01 0.01 0.01 0.03 0.04 0.01 0.00 0.00 0.00 0.00 0.00 0.00 0.00 0.00 0.00 0.00 0.00 0.00 0.00 0.00 0.00 0.01 0.01 0.00 0.00 0.01 0.01 0.00 0.00 0.00 0.00 0.01 0.01 0.02 0.02 0.02 0.02 0.02 0.02 0.02 0.02 0.03 0.03 0.01 0.03 0.03
MSLP
1002.11 1003.09 1004.40 1005.87 1007.29 1008.48 1009.31 1009.75 1009.84 1009.71 1009.52 1009.42 1009.47 1009.72 1010.10 1010.52 1010.87 1011.09 1011.13 1011.03 1010.86 1010.72 1010.67 1010.77 1010.99 1011.28 1011.56 1011.75 1011.80 1011.70 1011.48 1011.20 1010.95 1010.79 1010.73 1010.79 1010.92 1011.08 1011.21 1011.27 1011.27 1011.22 1011.16 1011.11 1011.10 1011.13 1011.19 1011.27 1011.33
1002.47 1003.75 1005.31 1006.95 1008.46 1009.63 1010.38 1010.66 1010.57 1010.24 1009.86 1009.59 1009.50 1009.64 1009.94 1010.31 1010.64 1010.86 1010.92 1010.86 1010.75 1010.67 1010.70 1010.86 1011.14 1011.48 1011.79 1012.01 1012.06 1011.97 1011.75 1011.48 1011.24 1011.09 1011.05 1011.13 1011.28 1011.46 1011.60 1011.67 1011.68 1011.64 1011.58 1011.54 1011.53 1011.57 1011.64 1011.71 1011.78
1002.87 1004.42 1006.20 1007.98 1009.53 1010.68 1011.33 1011.47 1011.21 1010.71 1010.19 1009.78 1009.60 1009.66 1009.90 1010.23 1010.54 1010.74 1010.81 1010.76 1010.68 1010.64 1010.71 1010.91 1011.23 1011.60 1011.94 1012.17 1012.26 1012.19 1012.00 1011.77 1011.56 1011.45 1011.44 1011.53 1011.69 1011.85 1011.98 1012.03 1012.02 1011.97 1011.91 1011.87 1011.87 1011.91 1011.99 1012.07 1012.13
1003.25 1005.02 1006.97 1008.84 1010.41 1011.52 1012.07 1012.10 1011.72 1011.11 1010.50 1010.02 1009.78 1009.80 1010.00 1010.29 1010.56 1010.73 1010.78 1010.73 1010.65 1010.62 1010.70 1010.92 1011.25 1011.64 1012.00 1012.26 1012.38 1012.36 1012.23 1012.06 1011.91 1011.84 1011.86 1011.96 1012.11 1012.24 1012.33 1012.35 1012.32 1012.25 1012.18 1012.14 1012.15 1012.20 1012.28 1012.35 1012.39
1003.60 1005.52 1007.55 1009.46 1011.01 1012.05 1012.53 1012.48 1012.05 1011.41 1010.77 1010.29 1010.05 1010.05 1010.23 1010.48 1010.70 1010.82 1010.82 1010.73 1010.63 1010.58 1010.66 1010.88 1011.22 1011.61 1011.99 1012.28 1012.44 1012.47 1012.41 1012.31 1012.23 1012.21 1012.26 1012.36 1012.49 1012.59 1012.64 1012.62 1012.56 1012.47 1012.41 1012.38 1012.41 1012.46 1012.53 1012.58 1012.59
1003.94 1005.90 1007.93 1009.80 1011.28 1012.25 1012.67 1012.59 1012.16 1011.56 1010.98 1010.55 1010.36 1010.38 1010.54 1010.75 1010.92 1010.97 1010.90 1010.76 1010.62 1010.55 1010.61 1010.82 1011.15 1011.55 1011.94 1012.24 1012.44 1012.53 1012.53 1012.49 1012.47 1012.49 1012.56 1012.67 1012.77 1012.84 1012.85 1012.81 1012.73 1012.65 1012.59 1012.59 1012.63 1012.70 1012.76 1012.78 1012.75
1004.26 1006.18 1008.12 1009.87 1011.25 1012.13 1012.50 1012.43 1012.05 1011.55 1011.09 1010.77 1010.66 1010.73 1010.90 1011.08 1011.18 1011.16 1011.03 1010.83 1010.64 1010.54 1010.58 1010.78 1011.10 1011.49 1011.87 1012.19 1012.40 1012.51 1012.55 1012.55 1012.57 1012.63 1012.71 1012.82 1012.90 1012.95 1012.94 1012.88 1012.80 1012.74 1012.71 1012.74 1012.81 1012.88 1012.94 1012.93 1012.85
1004.61 1006.40 1008.18 1009.76 1010.98 1011.76 1012.09 1012.05 1011.77 1011.40 1011.10 1010.93 1010.94 1011.07 1011.26 1011.41 1011.46 1011.38 1011.19 1010.94 1010.72 1010.60 1010.63 1010.81 1011.12 1011.48 1011.84 1012.13 1012.33 1012.43 1012.48 1012.51 1012.54 1012.61 1012.71 1012.80 1012.88 1012.91 1012.89 1012.84 1012.77 1012.73 1012.74 1012.80 1012.89 1012.98 1013.03 1012.99 1012.88
1005.00 1006.63 1008.20 1009.56 1010.59 1011.25 1011.54 1011.53 1011.36 1011.16 1011.03 1011.03 1011.17 1011.38 1011.60 1011.74 1011.76 1011.63 1011.40 1011.13 1010.89 1010.77 1010.79 1010.96 1011.24 1011.56 1011.87 1012.10 1012.25 1012.32 1012.35 1012.36 1012.40 1012.47 1012.56 1012.66 1012.74 1012.77 1012.75 1012.70 1012.65 1012.63 1012.67 1012.76 1012.87 1012.97 1013.00 1012.95 1012.81
1005.48 1006.91 1008.25 1009.38 1010.21 1010.73 1010.97 1011.00 1010.94 1010.90 1010.94 1011.10 1011.36 1011.66 1011.91 1012.06 1012.06 1011.91 1011.67 1011.39 1011.17 1011.06 1011.08 1011.24 1011.48 1011.75 1011.98 1012.13 1012.21 1012.21 1012.19 1012.17 1012.19 1012.26 1012.36 1012.46 1012.54 1012.58 1012.56 1012.52 1012.48 1012.48 1012.52 1012.62 1012.74 1012.84 1012.87 1012.81 1012.66
1006.05 1007.29 1008.40 1009.30 1009.93 1010.32 1010.50 1010.56 1010.59 1010.68 1010.87 1011.17 1011.53 1011.90 1012.19 1012.35 1012.34 1012.20 1011.97 1011.72 1011.53 1011.44 1011.48 1011.62 1011.82 1012.02 1012.16 1012.22 1012.20 1012.13 1012.04 1011.99 1011.99 1012.05 1012.16 1012.28 1012.37 1012.42 1012.41 1012.37 1012.32 1012.31 1012.34 1012.43 1012.54 1012.63 1012.67 1012.61 1012.47
1006.70 1007.78 1008.68 1009.37 1009.82 1010.08 1010.21 1010.28 1010.38 1010.57 1010.87 1011.27 1011.70 1012.11 1012.42 1012.59 1012.60 1012.47 1012.27 1012.07 1011.93 1011.88 1011.93 1012.07 1012.22 1012.35 1012.40 1012.37 1012.26 1012.10 1011.95 1011.86 1011.85 1011.92 1012.05 1012.19 1012.30 1012.36 1012.36 1012.30 1012.24 1012.19 1012.19 1012.24 1012.33 1012.41 1012.45 1012.42 1012.31
1007.39 1008.34 1009.07 1009.59 1009.90 1010.06 1010.14 1010.21 1010.35 1010.60 1010.97 1011.41 1011.87 1012.29 1012.60 1012.77 1012.79 1012.69 1012.54 1012.39 1012.30 1012.29 1012.37 1012.50 1012.62 1012.69 1012.67 1012.55 1012.36 1012.14 1011.95 1011.83 1011.82 1011.90 1012.05 1012.22 1012.35 1012.43 1012.43 1012.36 1012.26 1012.17 1012.12 1012.13 1012.18 1012.26 1012.31 1012.31 1012.26
1008.04 1008.89 1009.50 1009.90 1010.11 1010.21 1010.26 1010.34 1010.50 1010.77 1011.15 1011.59 1012.03 1012.43 1012.71 1012.87 1012.89 1012.82 1012.70 1012.61 1012.57 1012.61 1012.72 1012.85 1012.95 1012.98 1012.91 1012.73 1012.49 1012.23 1012.02 1011.89 1011.89 1011.99 1012.16 1012.36 1012.52 1012.61 1012.61 1012.53 1012.40 1012.27 1012.17 1012.13 1012.16 1012.22 1012.30 1012.35 1012.37
1008.56 1009.33 1009.86 1010.19 1010.36 1010.44 1010.50 1010.59 1010.76 1011.03 1011.38 1011.78 1012.17 1012.51 1012.74 1012.87 1012.88 1012.82 1012.75 1012.70 1012.72 1012.80 1012.93 1013.07 1013.17 1013.18 1013.09 1012.89 1012.63 1012.37 1012.15 1012.03 1012.03 1012.15 1012.35 1012.56 1012.74 1012.85 1012.85 1012.76 1012.62 1012.46 1012.33 1012.26 1012.27 1012.34 1012.44 1012.55 1012.65
1008.85 1009.55 1010.05 1010.37 1010.56 1010.67 1010.76 1010.88 1011.06 1011.30 1011.61 1011.94 1012.25 1012.51 1012.68 1012.77 1012.77 1012.73 1012.68 1012.67 1012.73 1012.84 1013.00 1013.16 1013.26 1013.28 1013.20 1013.02 1012.78 1012.52 1012.32 1012.21 1012.22 1012.35 1012.54 1012.76 1012.95 1013.07 1013.09 1013.01 1012.86 1012.70 1012.56 1012.49 1012.49 1012.58 1012.72 1012.89 1013.06
1008.84 1009.50 1009.99 1010.35 1010.61 1010.80 1010.96 1011.12 1011.31 1011.53 1011.77 1012.01 1012.24 1012.42 1012.53 1012.58 1012.57 1012.54 1012.52 1012.55 1012.63 1012.77 1012.95 1013.12 1013.25 1013.29 1013.25 1013.11 1012.91 1012.70 1012.52 1012.42 1012.43 1012.53 1012.71 1012.91 1013.10 1013.22 1013.25 1013.20 1013.08 1012.95 1012.83 1012.77 1012.79 1012.90 1013.07 1013.29 1013.52
1008.52 1009.14 1009.67 1010.11 1010.48 1010.78 1011.03 1011.25 1011.45 1011.63 1011.80 1011.96 1012.10 1012.21 1012.28 1012.31 1012.31 1012.31 1012.32 1012.38 1012.48 1012.64 1012.82 1013.01 1013.16 1013.25 1013.25 1013.18 1013.04 1012.88 1012.73 1012.64 1012.63 1012.70 1012.83 1012.99 1013.15 1013.27 1013.32 1013.31 1013.25 1013.16 1013.09 1013.07 1013.12 1013.25 1013.44 1013.69 1013.95
1007.92 1008.53 1009.12 1009.68 1010.19 1010.62 1010.97 1011.24 1011.43 1011.57 1011.67 1011.75 1011.82 1011.88 1011.93 1011.97 1012.02 1012.06 1012.12 1012.21 1012.33 1012.49 1012.68 1012.87 1013.05 1013.18 1013.24 1013.24 1013.18 1013.08 1012.97 1012.88 1012.84 1012.85 1012.92 1013.02 1013.13 1013.24 1013.31 1013.34 1013.34 1013.33 1013.32 1013.35 1013.43 1013.56 1013.76 1014.00 1014.27
1007.15 1007.79 1008.47 1009.16 1009.81 1010.36 1010.79 1011.09 1011.26 1011.33 1011.35 1011.35 1011.36 1011.40 1011.47 1011.57 1011.69 1011.82 1011.94 1012.08 1012.22 1012.38 1012.56 1012.75 1012.94 1013.10 1013.23 1013.31 1013.33 1013.30 1013.23 1013.15 1013.08 1013.03 1013.01 1013.04 1013.10 1013.17 1013.26 1013.33 1013.40 1013.46 1013.52 1013.59 1013.69 1013.82 1013.99 1014.19 1014.43
1006.37 1007.06 1007.86 1008.68 1009.45 1010.10 1010.57 1010.85 1010.95 1010.93 1010.85 1010.76 1010.73 1010.78 1010.91 1011.10 1011.33 1011.57 1011.79 1011.98 1012.15 1012.31 1012.47 1012.65 1012.83 1013.03 1013.22 1013.38 1013.49 1013.53 1013.52 1013.45 1013.35 1013.24 1013.15 1013.09 1013.09 1013.13 1013.21 1013.32 1013.44 1013.57 1013.68 1013.79 1013.90 1014.00 1014.12 1014.27 1014.43
1005.72 1006.51 1007.43 1008.37 1009.23 1009.92 1010.37 1010.57 1010.56 1010.40 1010.19 1010.02 1009.95 1010.02 1010.23 1010.54 1010.91 1011.29 1011.62 1011.89 1012.09 1012.25 1012.39 1012.55 1012.73 1012.95 1013.18 1013.42 1013.61 1013.74 1013.79 1013.75 1013.64 1013.49 1013.33 1013.21 1013.14 1013.14 1013.21 1013.34 1013.50 1013.67 1013.83 1013.96 1014.06 1014.12 1014.18 1014.24 1014.32
1005.31 1006.22 1007.25 1008.29 1009.20 1009.87 1010.24 1010.31 1010.14 1009.81 1009.45 1009.18 1009.07 1009.17 1009.46 1009.91 1010.43 1010.95 1011.41 1011.76 1012.00 1012.16 1012.28 1012.41 1012.58 1012.80 1013.08 1013.38 1013.66 1013.88 1014.00 1014.01 1013.91 1013.74 1013.54 1013.36 1013.24 1013.20 1013.25 1013.39 1013.57 1013.77 1013.95 1014.09 1014.18 1014.20 1014.19 1014.16 1014.16
1005.17 1006.20 1007.34 1008.44 1009.35 1009.95 1010.20 1010.10 1009.72 1009.20 1008.68 1008.30 1008.14 1008.26 1008.64 1009.21 1009.88 1010.54 1011.11 1011.55 1011.83 1012.00 1012.10 1012.20 1012.35 1012.58 1012.89 1013.25 1013.60 1013.90 1014.10 1014.17 1014.11 1013.94 1013.73 1013.51 1013.35 1013.27 1013.31 1013.43 1013.63 1013.84 1014.04 1014.18 1014.25 1014.24 1014.17 1014.08 1014.00
1005.23 1006.37 1007.59 1008.71 1009.58 1010.09 1010.18 1009.90 1009.32 1008.61 1007.94 1007.44 1007.24 1007.37 1007.81 1008.48 1009.26 1010.05 1010.72 1011.23 1011.56 1011.73 1011.83 1011.90 1012.03 1012.26 1012.59 1012.99 1013.41 1013.78 1014.06 1014.19 1014.17 1014.03 1013.82 1013.59 1013.41 1013.31 1013.32 1013.44 1013.63 1013.85 1014.05 1014.20 1014.26 1014.24 1014.14 1014.01 1013.88
1005.37 1006.59 1007.84 1008.95 1009.76 1010.16 1010.11 1009.66 1008.92 1008.06 1007.26 1006.68 1006.44 1006.56 1007.04 1007.77 1008.63 1009.49 1010.24 1010.80 1011.17 1011.36 1011.45 1011.51 1011.64 1011.86 1012.20 1012.63 1013.09 1013.51 1013.84 1014.03 1014.06 1013.96 1013.77 1013.55 1013.36 1013.25 1013.25 1013.36 1013.54 1013.77 1013.98 1014.13 1014.21 1014.19 1014.10 1013.96 1013.82
1005.42 1006.67 1007.91 1008.98 1009.72 1010.03 1009.88 1009.32 1008.49 1007.55 1006.68 1006.06 1005.78 1005.90 1006.38 1007.13 1008.02 1008.92 1009.70 1010.29 1010.68 1010.89 1010.99 1011.06 1011.19 1011.41 1011.75 1012.19 1012.67 1013.12 1013.48 1013.71 1013.77 1013.71 1013.55 1013.35 1013.17 1013.07 1013.07 1013.18 1013.37 1013.59 1013.81 1013.99 1014.08 1014.10 1014.03 1013.92 1013.79
1005.26 1006.47 1007.66 1008.66 1009.33 1009.58 1009.39 1008.81 1007.97 1007.04 1006.19 1005.57 1005.30 1005.41 1005.87 1006.60 1007.48 1008.36 1009.14 1009.74 1010.15 1010.38 1010.51 1010.60 1010.74 1010.96 1011.30 1011.73 1012.19 1012.64 1013.01 1013.24 1013.34 1013.30 1013.17 1013.01 1012.87 1012.79 1012.81 1012.93 1013.12 1013.36 1013.59 1013.78 1013.91 1013.96 1013.94 1013.87 1013.79
1004.83 1005.93 1007.00 1007.91 1008.52 1008.75 1008.58 1008.08 1007.33 1006.51 1005.75 1005.22 1004.99 1005.10 1005.54 1006.22 1007.03 1007.86 1008.59 1009.18 1009.60 1009.87 1010.03 1010.16 1010.33 1010.57 1010.90 1011.30 1011.73 1012.14 1012.48 1012.70 1012.80 1012.79 1012.70 1012.59 1012.49 1012.46 1012.52 1012.66 1012.87 1013.11 1013.36 1013.56 1013.72 1013.80 1013.83 1013.81 1013.77
1004.18 1005.09 1006.01 1006.79 1007.33 1007.57 1007.49 1007.12 1006.56 1005.92 1005.35 1004.94 1004.79 1004.93 1005.33 1005.94 1006.67 1007.41 1008.09 1008.64 1009.07 1009.37 1009.59 1009.78 1009.99 1010.25 1010.57 1010.94 1011.32 1011.67 1011.96 1012.15 1012.24 1012.24 1012.20 1012.15 1012.12 1012.15 1012.26 1012.44 1012.67 1012.93 1013.18 1013.39 1013.55 1013.66 1013.71 1013.73 1013.74
Thickness
5837 5837 5834 5824 5802 5789 5786 5794 5801 5798 5798 5805 5805 5798 5787 5780 5769 5756 5780 5790 5789 5785 5781 5780 5780 5781 5781 5781 5780 5779 5779 5778 5778 5777 5777 5776 5775 5774 5773 5773 5772 5772 5772 5771 5770 5769 5769 5767 5766
5846 5844 5832 5816 5791 5780 5782 5796 5797 5799 5805 5810 5807 5799 5788 5782 5785 5781 5785 5789 5790 5786 5782 5779 5778 5778 5778 5779 5779 5778 5777 5777 5777 5776 5775 5775 5774 5773 5772 5771 5771 5771 5771 5771 5770 5769 5768 5766 5765
5847 5847 5824 5810 5799 5788 5786 5800 5803 5809 5814 5810 5801 5798 5788 5781 5786 5785 5789 5793 5790 5785 5781 5778 5777 5777 5777 5777 5777 5777 5777 5776 5776 5775 5774 5773 5772 5771 5770 5769 5770 5770 5771 5770 5770 5769 5767 5765 5764
5845 5837 5826 5809 5800 5806 5807 5810 5814 5809 5811 5812 5803 5789 5788 5794 5791 5792 5794 5795 5790 5786 5782 5777 5777 5776 5776 5776 5776 5776 5776 5776 5775 5774 5773 5772 5771 5770 5769 5768 5768 5769 5768 5768 5768 5767 5765 5764 5764
5846 5828 5811 5803 5805 5815 5821 5823 5820 5809 5806 5807 5801 5784 5780 5794 5799 5798 5796 5795 5791 5787 5783 5779 5777 5776 5775 5775 5775 5775 5775 5775 5774 5772 5771 5770 5769 5769 5768 5768 5767 5767 5767 5766 5766 5765 5763 5763 5763
5835 5828 5806 5798 5806 5816 5823 5828 5821 5811 5808 5807 5799 5785 5781 5796 5797 5798 5798 5796 5794 5789 5784 5779 5777 5776 5775 5775 5774 5774 5774 5773 5773 5772 5771 5770 5769 5769 5768 5767 5766 5766 5765 5764 5764 5763 5762 5762 5762
5835 5825 5812 5809 5807 5811 5821 5831 5820 5811 5807 5809 5807 5787 5784 5795 5799 5801 5799 5797 5796 5793 5787 5782 5779 5777 5775 5775 5774 5774 5774 5773 5772 5772 5771 5771 5770 5769 5767 5766 5766 5765 5764 5763 5763 5762 5762 5762 5762
5862 5836 5821 5815 5809 5809 5826 5830 5826 5817 5810 5820 5816 5791 5783 5794 5803 5803 5800 5797 5795 5794 5791 5787 5784 5780 5778 5776 5775 5774 5774 5773 5772 5772 5772 5772 5771 5769 5767 5766 5765 5765 5764 5763 5762 5762 5762 5762 5762
5874 5832 5816 5819 5817 5817 5830 5825 5827 5829 5819 5817 5817 5807 5801 5805 5805 5799 5795 5792 5791 5791 5791 5791 5788 5784 5782 5780 5777 5775 5774 5774 5773 5773 5772 5772 5771 5770 5768 5767 5765 5765 5764 5763 5762 5762 5761 5761 5762
5863 5827 5825 5839 5838 5830 5830 5828 5827 5820 5810 5806 5805 5807 5808 5806 5801 5795 5790 5787 5786 5787 5790 5791 5790 5788 5786 5784 5780 5779 5778 5775 5774 5775 5773 5773 5772 5771 5770 5768 5766 5765 5765 5764 5763 5762 5762 5761 5762
5863 5842 5846 5849 5851 5843 5834 5832 5835 5819 5804 5804 5800 5801 5804 5802 5799 5795 5792 5790 5787 5789 5790 5791 5789 5788 5787 5785 5783 5782 5780 5778 5777 5776 5775 5774 5773 5772 5771 5768 5767 5766 5765 5765 5764 5763 5763 5764 5764
5862 5858 5859 5855 5857 5848 5839 5836 5829 5823 5815 5819 5814 5810 5805 5800 5797 5795 5793 5791 5790 5789 5789 5791 5790 5788 5786 5785 5784 5783 5782 5780 5779 5777 5777 5776 5774 5773 5772 5770 5769 5769 5768 5767 5767 5766 5766 5766 5766
5858 5858 5862 5862 5859 5853 5845 5834 5828 5822 5827 5825 5818 5812 5806 5802 5801 5800 5798 5795 5793 5790 5790 5790 5790 5787 5786 5784 5784 5784 5783 5781 5780 5778 5777 5776 5775 5774 5773 5772 5772 5771 5771 5769 5769 5768 5767 5766 5766
5863 5863 5862 5861 5857 5853 5838 5831 5826 5822 5829 5822 5815 5809 5808 5805 5803 5800 5797 5794 5793 5791 5790 5791 5790 5788 5786 5785 5784 5784 5784 5781 5780 5778 5777 5777 5777 5775 5774 5773 5772 5772 5771 5770 5769 5769 5767 5766 5765
5870 5855 5851 5856 5856 5852 5841 5820 5821 5828 5829 5819 5814 5811 5809 5808 5806 5802 5800 5797 5795 5793 5792 5791 5791 5789 5787 5786 5785 5785 5785 5783 5781 5779 5778 5778 5777 5776 5775 5774 5773 5772 5772 5771 5770 5769 5768 5766 5765
5854 5833 5825 5848 5857 5854 5835 5806 5826 5836 5828 5818 5816 5813 5810 5808 5808 5807 5805 5801 5799 5796 5793 5793 5794 5790 5787 5786 5785 5785 5785 5784 5782 5781 5779 5778 5777 5777 5776 5775 5774 5774 5773 5772 5770 5768 5766 5765 5764
5829 5816 5821 5841 5860 5854 5838 5817 5831 5840 5831 5821 5819 5817 5813 5809 5810 5809 5808 5805 5802 5798 5795 5793 5793 5790 5788 5787 5786 5785 5785 5784 5783 5781 5780 5779 5778 5778 5777 5776 5775 5775 5773 5772 5771 5768 5766 5763 5762
5819 5822 5830 5837 5855 5852 5836 5830 5836 5842 5836 5828 5824 5821 5816 5812 5811 5812 5811 5809 5805 5801 5798 5794 5792 5790 5788 5787 5785 5785 5784 5784 5783 5782 5781 5780 5779 5779 5778 5776 5775 5774 5773 5771 5769 5767 5767 5765 5763
5841 5837 5836 5847 5861 5849 5837 5834 5839 5844 5840 5832 5828 5824 5819 5817 5818 5817 5814 5811 5807 5802 5798 5795 5792 5790 5788 5785 5783 5781 5780 5782 5782 5782 5782 5781 5780 5779 5778 5777 5775 5774 5772 5770 5769 5767 5765 5764 5763
5851 5841 5841 5851 5861 5849 5836 5836 5846 5847 5843 5841 5835 5829 5825 5820 5818 5817 5815 5812 5808 5803 5799 5796 5793 5791 5789 5787 5786 5784 5784 5783 5784 5783 5782 5781 5781 5780 5780 5777 5776 5774 5772 5770 5769 5767 5764 5763 5764
5849 5846 5843 5843 5853 5854 5836 5822 5833 5847 5851 5849 5845 5839 5834 5827 5821 5818 5816 5814 5810 5805 5802 5800 5796 5793 5791 5790 5789 5787 5785 5783 5782 5781 5781 5782 5782 5781 5779 5778 5777 5775 5773 5770 5769 5767 5764 5760 5762
5841 5860 5856 5851 5840 5827 5830 5802 5821 5839 5841 5843 5844 5843 5839 5835 5829 5824 5820 5817 5813 5810 5807 5803 5799 5795 5793 5792 5789 5785 5780 5778 5780 5781 5782 5782 5782 5781 5780 5779 5777 5776 5774 5771 5770 5768 5767 5763 5759
5853 5866 5859 5854 5845 5834 5833 5815 5816 5838 5833 5840 5846 5847 5845 5842 5836 5830 5826 5822 5819 5816 5811 5806 5801 5797 5794 5793 5790 5787 5784 5784 5784 5783 5782 5781 5781 5781 5781 5779 5778 5776 5774 5772 5770 5768 5767 5765 5761
5866 5859 5853 5851 5842 5813 5830 5819 5811 5833 5838 5844 5850 5851 5850 5847 5842 5836 5832 5827 5823 5820 5815 5809 5802 5798 5796 5794 5792 5789 5786 5785 5783 5782 5781 5781 5782 5781 5780 5779 5777 5776 5774 5772 5770 5768 5767 5765 5763
5857 5833 5810 5804 5801 5806 5842 5833 5831 5854 5863 5860 5856 5855 5855 5852 5846 5839 5833 5828 5824 5821 5817 5811 5804 5799 5798 5796 5793 5791 5789 5786 5784 5783 5782 5781 5781 5779 5778 5779 5776 5774 5773 5772 5770 5768 5766 5764 5761
5847 5836 5802 5786 5791 5810 5833 5829 5848 5873 5876 5874 5869 5862 5857 5854 5849 5843 5838 5833 5828 5824 5820 5813 5806 5801 5799 5797 5794 5793 5791 5789 5787 5785 5785 5783 5782 5781 5780 5778 5776 5774 5772 5771 5768 5766 5765 5762 5760
5842 5838 5844 5826 5820 5812 5822 5838 5853 5873 5870 5869 5867 5862 5856 5855 5852 5847 5842 5838 5833 5828 5822 5817 5809 5804 5801 5799 5796 5793 5791 5790 5788 5788 5786 5784 5783 5782 5780 5777 5775 5773 5770 5768 5766 5764 5762 5760 5758
5858 5852 5838 5822 5801 5797 5812 5820 5829 5848 5855 5861 5862 5860 5858 5857 5854 5850 5845 5841 5836 5832 5826 5820 5813 5806 5803 5800 5798 5795 5792 5791 5789 5787 5784 5783 5782 5780 5778 5776 5773 5771 5769 5767 5764 5762 5761 5758 5756
5843 5841 5837 5832 5829 5804 5794 5813 5853 5857 5860 5861 5863 5863 5861 5859 5856 5851 5847 5843 5839 5834 5828 5821 5814 5809 5805 5802 5799 5796 5793 5791 5789 5786 5784 5782 5781 5778 5776 5774 5772 5770 5767 5765 5763 5761 5759 5756 5753
5852 5844 5838 5816 5813 5816 5806 5813 5864 5866 5870 5867 5866 5866 5865 5862 5860 5854 5848 5843 5838 5833 5828 5822 5817 5812 5808 5804 5800 5796 5794 5791 5788 5786 5784 5782 5779 5777 5775 5772 5770 5768 5765 5763 5761 5758 5757 5754 5750